KCVG Airport Diagram

We have created a template for each of the higher traffic airports in the vZID airspace. They include KCMH, KCRW, KCVG, KDAY, KIND, KLEX and KSDF. You wil find usefull information including the airport diagram, weather, and specific airport procedures.

KCVG Weather

[Source: ADDS]
METAR
KCVG 232352Z 16003KT 10SM FEW150 SCT250 11/M10 A3026 RMK AO2 SLP249 T01111100 10144 20094 58004 =
KCVG 232332Z 2400/2506 00000KT P6SM SCT250 FM241300 16005KT P6SM OVC100 FM241700 20006KT P6SM VCSH OVC060 FM242000 19007KT P6SM VCSH OVC050 FM250300 21007KT 5SM -SHRA BR OVC050
TAF
KCVG 232332Z 2400/2506 00000KT P6SM SCT250 FM241300 16005KT P6SM OVC100 FM241700 20006KT P6SM VCSH OVC060 FM242000 19007KT P6SM VCSH OVC050 FM250300 21007KT 5SM -SHRA BR OVC050 =

KCVG Operations

Calm Wind Configuration is Landing runways 36C and 36R, departing runway 27.

You can expect  this configuration up to and including a 10 knot tailwind.

The Center runway is the old 18R/36L in the default scenery. Additionally, runway 9/27 was lengthened to 12,000 feet when the west runway (18R/36L) was added.

Where parallel taxiways exist, inner taxiway is used by inbound traffic and outer taxiway is used by outbound traffic.

FDX & UPS use the ramp area at Terminal 1.

New Scenery is available at FlightSim.com.

On initial contact, arriving aircraft should notify the the controller which scenery they have.

 

JSN Epic template designed by JoomlaShine.com